Вернуться в каталог

VANGUARD 3

АктивенНаукаUNKNOWN
NORAD 20·PAYLOAD·🇺🇸 United States

Запущен Sep 18, 1959 с Cape Canaveral Space Force Station

Loading…

Ближайшие Пролёты (ближайшие 24 часа)

TLE

СвежийSource: Space-Track

Эпоха: Sep 14, 2026, 11:28 UTC

1 00020U 59007A   26257.47801976  .00000615  00000-0  24059-3 0  9992
2 00020  33.3443 305.4002 1636342 172.3419 190.5750 11.62028783495003

Отслеживайте VANGUARD 3 в реальном времени с AllMySat

Download on the App Store